Wind_Speed
16 18 19 18 17 19 19 18 17 18 19 19 20 21 21 21 22 24 25 25 24 24 24 25 26 25 25 24 23 22 22 22 22 23 24 25 26 27 28 29 30 30 30 30 30 30 31 32 33 34 34 35 36 36 36 36 37 38 39 40 41 42 43
20 23 22 20 18 18 19 18 17 18 19 18 19 20 19 20 22 23 24 24 23 24 24 24 24 25 24 23 23 23 23 23 23 24 25 26 27 28 29 30 31 31 31 31 31 31 32 32 33 34 35 35 36 36 37 37 38 39 40 41 42 42 44
26 25 24 22 20 18 19 19 18 18 18 19 20 19 19 20 22 23 23 22 22 23 23 23 24 25 25 24 24 24 24 23 23 24 25 26 27 29 30 31 31 31 31 31 31 31 32 33 34 35 35 36 37 37 37 38 39 40 41 42 43 43 44
28 26 25 24 22 19 18 18 18 19 20 20 20 19 19 20 22 22 22 21 21 23 23 23 25 26 27 26 25 25 25 24 24 25 25 26 28 29 30 31 31 31 31 31 31 31 32 33 34 35 35 36 37 38 38 39 39 40 41 42 43 44 45
24 23 24 25 23 21 19 18 17 20 22 21 19 19 20 21 21 22 21 21 21 23 24 23 25 27 28 27 26 25 25 25 25 25 25 26 28 29 30 31 31 30 30 30 31 32 32 33 34 34 35 37 38 39 39 40 40 40 41 43 44 45 46
25 26 25 24 25 24 21 19 18 20 22 20 19 20 20 20 21 21 21 21 21 23 24 25 26 27 28 27 26 25 26 26 25 24 25 27 28 29 30 31 31 30 30 30 31 32 33 34 34 35 36 38 39 40 40 41 41 41 42 43 44 45 46
32 31 26 23 24 23 20 17 17 18 20 19 19 20 21 21 20 21 22 22 22 23 25 26 27 28 28 27 26 25 26 27 26 25 27 28 29 30 32 32 31 31 30 30 31 32 33 34 35 36 38 39 40 40 40 41 41 41 42 43 44 45 46
32 31 28 25 23 21 19 17 16 18 19 19 20 20 21 21 22 22 22 23 24 24 25 26 27 29 29 27 26 25 26 26 27 28 29 30 31 32 32 32 32 32 30 30 31 31 32 34 35 37 38 39 40 40 40 40 41 42 42 43 44 45 45
31 30 29 26 22 20 19 17 17 19 20 21 21 21 22 23 24 25 23 24 25 25 26 27 27 29 28 28 27 26 26 26 27 29 30 31 33 34 33 32 32 32 31 30 31 31 32 33 35 36 38 39 40 41 42 41 41 42 43 43 44 45 45
31 30 29 27 23 20 19 17 18 20 21 23 22 22 24 25 26 27 26 26 26 26 27 26 26 28 29 29 27 26 26 26 27 30 31 33 34 34 33 33 32 31 31 31 31 32 33 34 36 38 40 41 40 40 41 41 42 42 43 43 43 44 45
30 29 29 29 26 21 19 18 19 21 23 24 24 25 26 26 28 29 28 27 27 27 27 26 26 27 28 29 28 27 28 27 28 30 32 33 35 35 34 33 32 32 33 33 33 34 35 36 38 40 41 41 41 41 42 42 42 43 43 43 43 44 44
27 28 28 28 26 22 20 20 21 22 24 25 26 27 27 28 29 30 29 28 26 26 26 26 26 26 27 28 28 28 29 28 29 31 33 34 35 35 34 33 33 33 34 34 35 36 37 38 40 41 42 43 43 44 44 43 43 43 43 43 43 44 44
26 25 25 27 27 25 21 21 22 23 24 25 26 27 27 28 28 29 30 29 27 26 26 26 26 26 28 29 27 27 28 29 31 33 34 35 35 35 34 34 34 34 34 34 36 37 38 39 41 43 43 44 44 44 44 43 43 42 42 42 43 43 43
25 21 21 24 27 28 24 22 23 24 25 25 26 26 27 28 28 28 30 31 29 26 26 26 26 27 28 28 25 24 26 28 31 33 34 35 35 35 35 35 34 33 34 35 36 38 39 41 42 43 44 44 44 44 43 43 42 42 42 42 42 42 41
24 23 22 23 25 28 27 25 25 25 26 27 27 26 27 28 29 29 30 31 30 28 27 27 26 26 28 26 24 24 26 29 31 33 34 34 35 36 36 35 34 34 35 36 37 39 40 42 43 44 44 44 44 44 43 43 42 42 42 41 41 41 40
28 28 28 27 27 28 29 29 28 27 27 28 28 28 28 29 30 31 30 30 30 30 29 27 25 26 27 26 24 26 29 30 31 33 34 35 36 36 36 35 35 35 36 36 38 40 42 43 44 44 45 45 45 44 43 43 42 41 41 40 40 40 39
31 33 32 30 29 29 30 32 33 30 27 27 28 29 30 31 31 31 31 30 30 30 30 28 26 26 27 26 26 28 30 31 32 33 34 35 36 36 36 36 36 36 37 38 39 41 43 44 45 45 46 46 45 44 43 42 42 40 39 40 39 39 39
32 35 34 33 32 32 32 33 33 32 28 27 28 28 29 30 29 30 30 30 30 30 29 28 27 27 28 28 28 29 31 32 33 34 35 36 36 37 37 38 38 38 39 40 41 42 44 46 46 46 46 46 45 44 42 42 41 39 39 39 39 38 39
33 34 35 36 36 35 33 32 32 33 30 28 28 27 27 27 27 28 29 29 30 29 28 28 28 28 29 29 29 30 32 33 34 35 36 37 38 38 39 40 40 40 41 42 42 43 45 47 47 46 46 46 45 43 42 42 41 39 38 38 38 37 38
35 36 36 37 37 37 33 31 31 32 31 30 29 28 26 25 26 27 28 28 28 27 26 27 27 28 30 30 30 32 33 34 35 36 37 38 39 40 41 42 42 42 43 44 45 44 45 46 47 47 46 46 46 43 42 42 41 38 38 37 36 36 37
35 36 36 35 36 37 35 31 31 32 32 31 30 29 27 26 27 29 29 28 28 27 27 27 26 28 30 31 31 32 33 35 36 37 38 40 40 41 43 43 44 44 45 46 47 46 45 45 47 48 47 47 46 44 41 40 39 37 37 37 35 34 35
37 37 36 35 37 37 36 33 32 32 32 32 30 29 28 28 30 30 29 28 28 28 28 28 28 29 31 32 33 33 34 36 37 38 39 40 41 43 44 45 46 47 48 48 48 47 45 44 46 48 48 46 45 43 40 39 38 37 37 37 34 32 33
38 38 37 37 38 37 35 33 32 32 33 32 31 30 30 30 31 30 28 29 29 30 29 30 30 31 32 33 34 34 35 36 38 39 40 41 42 43 45 47 49 49 50 50 50 48 46 45 46 47 47 45 44 42 40 38 38 36 36 36 33 31 32
39 39 37 36 36 34 33 33 33 33 33 33 33 32 32 32 32 30 28 29 30 31 31 31 32 33 33 33 33 34 36 37 38 39 40 41 42 44 47 49 50 51 51 51 51 50 47 45 44 44 45 43 43 42 40 37 36 35 35 35 32 30 32
40 38 36 33 32 32 31 32 33 33 33 34 35 34 33 33 32 30 30 31 31 31 32 32 33 33 33 33 34 35 36 37 38 39 40 41 42 45 48 50 51 52 52 52 52 50 47 44 42 42 43 42 42 41 39 36 34 34 35 35 32 32 34
34 32 32 31 31 31 32 33 34 35 34 35 35 35 34 33 32 31 32 32 32 32 32 32 33 33 32 33 34 35 36 37 38 39 38 39 43 48 51 51 51 53 54 52 50 48 47 45 43 42 42 41 40 39 38 36 35 34 36 35 33 34 36
33 29 29 31 32 32 32 35 37 38 38 38 37 36 35 33 32 32 32 33 33 33 33 33 32 32 32 34 35 36 37 38 38 37 35 38 43 48 49 48 49 51 51 50 49 50 50 46 41 40 40 38 37 37 38 38 37 36 37 36 35 36 37
35 32 30 31 32 33 34 37 40 43 43 42 40 38 35 33 33 33 33 34 34 33 33 33 32 33 33 34 35 37 38 38 37 35 34 38 45 48 48 48 49 49 48 48 51 56 56 47 39 37 36 33 33 35 38 39 38 37 37 37 37 37 37
36 35 34 31 32 34 36 39 43 46 48 45 41 38 35 33 33 34 34 34 33 33 33 34 33 34 35 35 37 38 38 38 36 34 35 40 46 50 52 52 52 51 50 50 51 51 50 46 41 37 33 33 36 38 39 38 37 36 37 38 38 38 37
37 37 36 34 34 35 37 40 43 45 47 46 40 35 34 33 33 33 33 33 33 33 34 34 34 34 35 37 38 39 38 37 36 36 38 41 45 49 52 53 53 54 54 53 50 46 44 46 47 43 38 38 43 43 40 38 37 37 38 39 39 38 36
37 37 36 36 37 36 36 39 41 40 40 42 40 35 34 32 31 31 31 31 32 33 33 34 33 33 34 36 37 38 39 39 39 40 42 45 47 49 51 52 53 55 54 53 51 49 46 44 45 45 45 46 46 44 41 39 38 38 39 39 39 38 36
35 35 35 36 37 37 36 38 40 38 34 35 37 33 31 29 29 31 32 32 32 33 33 32 32 33 34 36 38 40 41 42 43 44 46 49 50 50 50 50 52 53 53 54 53 52 49 46 45 50 55 54 48 43 40 39 38 38 38 38 38 37 36
34 35 37 37 37 37 36 37 39 38 33 32 36 34 29 28 29 31 32 33 33 33 32 31 31 33 36 38 39 41 42 44 45 47 50 51 51 50 49 50 51 52 53 54 54 53 53 53 53 56 59 56 48 42 40 39 39 38 36 34 35 35 36
36 36 37 38 38 39 39 39 40 40 37 34 41 39 31 28 30 32 33 33 35 37 37 34 33 34 37 39 41 42 44 46 48 50 51 51 50 50 50 50 51 52 53 54 55 55 55 57 57 58 57 54 48 44 41 39 39 38 35 33 32 34 36
38 37 37 38 38 39 41 41 41 41 39 35 40 43 39 38 40 42 41 38 39 42 41 37 35 37 40 43 44 45 47 49 51 51 51 50 50 51 52 51 52 52 53 53 54 55 56 57 58 57 56 53 48 44 41 39 40 40 38 35 34 35 35
38 39 38 38 38 39 43 44 43 43 41 39 42 47 48 50 52 51 48 43 40 40 39 39 40 43 46 47 48 48 50 52 52 52 52 52 52 52 52 52 52 52 52 53 54 54 54 55 55 55 54 51 47 44 42 41 40 40 39 38 36 35 35
39 40 40 40 40 40 42 44 45 45 44 43 44 46 48 52 53 50 46 42 39 40 42 44 46 48 49 49 50 51 52 53 52 52 53 53 53 52 52 52 52 52 53 53 53 53 53 53 53 53 51 48 44 42 41 41 40 39 38 37 36 35 36
40 41 41 42 42 42 43 44 46 47 46 45 44 45 48 50 48 44 41 41 43 45 47 48 49 49 50 50 51 52 53 53 52 52 52 52 51 51 50 50 51 52 52 52 52 52 53 52 52 51 49 45 42 40 40 41 41 39 38 36 35 35 36
Wind_Direction
285 292 291 288 288 288 282 274 269 270 274 276 274 276 280 281 282 282 281 282 284 288 292 295 294 292 292 293 295 296 298 301 304 307 309 312 314 315 315 315 314 312 310 310 310 312 314 316 317 317 317 317 317 317 316 315 315 315 315 315 316 317 317
296 293 288 285 287 288 283 278 278 277 276 277 278 280 284 286 286 285 284 283 286 290 294 296 295 293 292 293 294 295 297 300 302 304 307 309 311 312 313 313 313 311 310 308 309 310 313 315 316 316 316 316 316 316 315 315 315 315 316 317 317 317 317
305 297 289 288 291 288 282 282 284 282 278 278 281 286 290 291 291 289 286 284 286 291 295 297 297 295 294 294 294 295 296 299 301 303 305 307 308 309 310 312 312 310 308 307 307 309 312 314 315 315 315 315 315 315 315 316 316 316 317 317 317 317 317
299 296 293 293 293 289 283 281 280 279 279 279 283 288 289 291 292 291 288 285 285 290 294 296 297 297 296 295 295 296 297 299 300 301 303 306 307 307 309 311 311 309 307 306 306 308 311 313 314 315 315 315 315 316 316 316 317 317 317 317 317 317 317
292 295 299 297 294 291 286 281 276 275 278 280 282 283 284 286 288 289 287 284 285 288 291 295 298 298 297 296 296 297 298 300 300 300 302 306 307 308 310 311 310 308 307 306 307 309 311 312 313 314 314 315 316 317 317 318 318 318 317 317 316 316 317
285 291 295 295 294 293 289 283 278 276 277 278 279 280 282 283 283 283 282 283 286 289 290 293 297 299 298 296 297 299 301 303 303 300 303 309 311 312 312 311 310 309 309 308 308 309 310 311 312 314 316 317 318 318 318 318 318 318 317 316 317 317 318
283 288 288 288 291 292 290 286 280 277 277 279 280 280 281 283 280 277 277 281 287 290 292 293 295 299 298 296 298 301 304 307 306 303 306 311 314 315 314 312 311 310 309 308 308 309 310 312 314 316 319 319 319 319 319 319 318 318 317 317 318 318 319
282 288 290 289 288 289 290 286 279 277 278 280 282 280 280 282 281 279 278 281 286 291 293 292 293 296 298 297 298 302 305 307 307 307 310 313 315 316 314 312 311 309 309 308 308 309 312 315 317 318 319 318 318 318 319 319 319 318 318 318 318 319 319
284 287 290 290 286 286 289 287 282 279 280 280 280 279 280 282 282 283 283 284 287 290 291 291 292 295 298 298 299 304 306 306 307 309 311 313 314 314 313 312 310 309 308 308 308 309 311 314 316 318 318 319 320 321 321 320 319 318 318 319 319 319 320
287 286 286 288 289 290 291 291 289 285 284 283 282 281 282 282 283 284 286 287 287 289 290 292 294 296 297 296 299 304 305 305 308 310 311 312 312 312 312 311 310 308 306 306 306 308 310 313 315 317 319 320 321 321 320 319 319 319 319 320 320 319 320
288 288 288 289 290 293 297 299 298 296 294 290 286 285 284 283 284 284 285 287 287 288 290 292 294 296 295 295 299 302 302 305 309 309 310 312 311 311 311 310 308 307 306 306 307 310 312 314 317 318 319 319 319 319 319 320 320 320 320 320 319 319 320
285 286 287 289 290 295 301 303 302 302 300 295 288 285 284 283 283 284 286 286 286 288 290 293 295 295 292 294 299 301 302 305 307 308 312 313 311 310 310 308 309 308 309 310 312 314 316 317 318 319 319 318 317 318 319 320 320 320 320 320 319 319 320
285 283 283 289 292 297 302 302 302 304 302 296 289 285 284 283 283 285 287 288 288 289 291 293 294 292 291 296 302 302 303 305 305 307 310 311 310 309 308 309 310 311 311 312 314 315 316 316 317 318 318 318 318 318 319 319 320 320 319 318 318 319 320
282 278 278 285 291 296 301 302 302 305 304 298 292 288 285 283 283 285 288 289 291 292 292 293 293 293 294 298 300 299 301 305 305 305 307 309 308 307 307 309 311 311 312 314 314 315 315 316 318 318 318 318 318 318 318 319 319 319 318 318 318 318 319
270 273 274 279 287 293 298 302 303 305 303 299 295 291 286 284 285 286 287 290 292 292 292 293 295 296 295 294 295 296 300 303 304 305 307 308 306 305 306 309 311 312 314 315 315 315 316 318 318 318 318 317 317 317 318 319 318 318 318 318 317 317 318
277 278 278 284 291 295 298 302 303 303 301 298 295 291 287 286 287 288 288 290 292 292 292 294 295 296 295 296 297 298 299 302 304 305 306 305 305 306 307 310 313 314 315 315 314 315 317 318 317 317 316 316 316 316 317 317 317 317 317 317 316 316 317
283 282 283 287 292 295 299 302 302 301 297 294 291 289 286 286 287 288 289 290 290 290 291 294 296 297 299 302 302 299 300 303 305 306 306 305 306 307 310 312 313 314 314 314 315 316 317 317 316 315 315 314 315 316 316 316 316 316 317 316 315 315 316
280 283 286 288 289 293 297 299 300 300 297 292 288 286 284 285 285 287 287 286 286 288 292 296 300 301 302 302 300 300 303 305 306 306 306 306 308 309 311 312 313 313 313 314 316 316 316 315 314 314 313 313 314 315 315 314 314 315 316 315 314 314 316
273 278 282 285 288 291 295 297 297 297 297 294 288 285 283 284 284 284 283 283 286 291 295 296 297 299 300 299 298 301 304 305 306 307 307 308 309 310 310 311 311 312 312 313 315 315 313 312 312 312 312 312 313 314 314 313 313 315 316 314 313 314 315
272 277 280 284 288 291 295 296 294 294 295 292 288 286 285 284 282 281 281 285 292 296 295 292 291 293 296 297 298 302 304 306 307 307 307 308 309 309 310 310 311 311 312 312 313 313 312 311 310 311 311 311 312 313 314 313 313 314 315 314 313 313 315
276 280 282 285 289 291 294 294 291 291 291 289 287 286 285 283 281 282 285 289 293 292 290 291 292 292 293 296 300 302 304 305 306 306 307 308 308 309 309 310 311 311 311 311 310 310 310 310 309 309 309 310 312 314 314 313 313 313 314 313 312 312 315
279 282 283 285 288 290 292 292 289 288 287 286 286 286 284 283 283 284 287 290 290 288 288 292 294 293 295 298 301 303 304 305 305 305 305 306 307 309 309 310 310 310 310 309 308 309 309 309 308 307 307 309 311 312 313 311 309 309 311 312 309 309 314
276 279 282 284 285 286 287 287 286 285 285 285 285 285 284 283 283 285 287 288 288 288 290 293 294 294 295 298 300 302 302 302 302 303 304 305 307 308 309 309 309 309 308 307 307 307 307 307 305 304 304 307 309 310 310 308 305 305 310 311 307 305 312
274 277 280 282 282 283 284 285 285 285 284 284 285 284 282 281 283 285 286 286 286 288 290 291 291 292 294 296 298 299 298 299 301 303 304 306 307 308 308 308 308 307 307 306 305 306 307 306 304 301 302 305 307 307 308 306 303 305 311 312 303 299 308
276 279 281 282 284 286 287 287 286 285 285 285 285 282 279 280 283 284 283 283 284 286 287 287 288 290 293 294 294 295 296 298 301 302 304 305 306 307 306 306 307 306 305 303 302 303 304 303 300 297 299 303 305 306 308 307 304 304 309 310 301 296 304
278 280 282 284 287 288 288 287 287 287 287 287 284 280 278 279 280 280 280 282 283 284 283 284 287 289 290 290 292 294 295 297 299 300 302 304 304 303 304 305 306 306 304 302 303 305 306 302 295 292 297 302 304 305 307 306 302 301 305 307 302 297 302
279 279 281 284 286 287 288 289 289 289 289 287 283 277 274 275 276 277 279 280 281 281 281 284 287 288 288 290 292 294 293 294 294 295 297 300 302 305 309 310 310 311 309 307 310 313 311 305 296 295 300 303 304 306 307 305 301 300 303 305 303 301 303
280 279 278 281 285 287 289 290 291 291 289 285 277 270 268 270 272 274 275 276 277 279 281 285 287 288 289 290 290 290 290 290 290 290 293 300 304 308 312 311 311 313 312 310 313 315 310 302 298 301 307 309 310 310 309 307 303 301 303 305 305 303 303
282 281 281 282 285 287 289 291 293 293 288 279 269 262 261 264 267 269 272 274 277 281 284 286 288 288 289 290 288 288 290 291 290 289 292 300 304 306 307 307 307 311 311 310 314 315 308 299 299 303 307 313 315 313 311 309 305 302 304 305 305 303 302
282 283 285 287 287 287 290 293 298 299 288 271 259 254 256 260 263 266 271 275 278 283 286 287 289 291 290 290 290 291 293 294 293 291 293 298 302 303 304 305 306 309 309 309 311 312 306 299 299 300 303 310 314 312 310 308 305 303 305 304 302 301 301
281 282 284 287 288 290 293 294 299 306 292 267 253 249 250 254 260 266 272 278 280 283 286 287 289 291 291 291 293 294 295 295 293 293 294 298 301 301 301 302 303 304 306 305 306 308 305 300 298 299 302 309 311 310 309 306 302 302 302 300 298 299 300
283 284 285 286 288 291 295 294 297 305 296 269 253 246 244 252 266 274 278 282 282 281 282 284 286 289 290 292 294 295 295 294 294 294 296 298 300 300 299 299 300 301 302 302 303 305 303 298 293 293 297 303 308 308 306 303 300 300 298 296 296 298 298
284 285 286 287 288 289 292 292 292 298 296 271 252 249 256 268 280 286 287 286 283 279 279 282 287 289 291 292 292 292 292 292 293 294 297 299 300 299 299 299 298 298 299 300 301 301 300 298 295 293 294 299 304 304 302 300 299 298 296 294 295 295 295
283 285 285 287 289 289 290 290 289 293 297 277 253 253 269 281 286 295 298 292 286 282 280 282 288 290 290 289 289 289 290 291 292 294 297 298 299 299 299 299 298 299 299 299 300 300 299 299 298 297 296 298 300 300 300 299 297 296 295 295 296 294 293
284 285 284 286 289 289 289 290 288 290 296 283 260 258 271 278 281 292 299 295 291 290 287 285 287 289 288 288 288 289 290 293 295 296 297 297 297 298 299 299 299 299 300 300 300 300 299 299 298 297 297 298 299 299 299 296 294 293 293 294 294 292 291
283 285 285 285 287 287 286 288 289 288 290 286 273 270 274 273 274 284 293 292 289 290 288 286 287 288 288 289 291 292 293 295 296 297 297 297 298 299 299 300 300 300 300 299 299 298 298 297 297 296 297 298 299 298 295 292 292 292 291 290 290 289 290
282 284 285 285 286 285 285 287 289 289 289 288 285 283 281 276 276 283 290 288 285 286 287 287 287 289 290 293 294 294 295 296 296 296 297 298 298 299 300 301 301 301 300 299 299 298 297 297 296 297 297 298 298 296 293 291 291 291 290 289 290 291 293
282 283 285 286 285 286 286 287 288 289 289 289 289 288 285 279 278 282 284 282 285 288 288 287 288 289 292 294 295 295 295 296 296 296 297 297 298 300 301 301 301 300 300 300 299 299 298 297 296 296 297 298 298 296 293 291 290 291 291 291 292 292 293
Height
5913 5913 5914 5915 5915 5916 5916 5917 5917 5916 5916 5916 5915 5915 5915 5915 5915 5914 5914 5914 5914 5914 5913 5913 5913 5912 5911 5910 5909 5908 5907 5906 5904 5903 5902 5901 5900 5899 5898 5896 5895 5893 5891 5889 5888 5886 5885 5883 5881 5879 5877 5875 5872 5870 5867 5865 5862 5860 5858 5855 5852 5850 5847
5913 5912 5912 5913 5913 5913 5913 5914 5915 5915 5914 5913 5912 5912 5912 5912 5912 5911 5911 5911 5911 5911 5910 5910 5910 5910 5909 5908 5907 5906 5904 5903 5902 5900 5899 5898 5897 5896 5894 5893 5891 5890 5888 5886 5884 5883 5881 5879 5877 5875 5873 5871 5869 5867 5864 5861 5859 5856 5853 5850 5848 5845 5842
5910 5910 5909 5910 5911 5911 5911 5912 5913 5913 5912 5911 5910 5910 5910 5910 5909 5908 5908 5908 5908 5908 5907 5907 5907 5907 5906 5905 5904 5903 5902 5901 5899 5898 5896 5895 5894 5893 5891 5890 5888 5886 5884 5883 5881 5879 5878 5876 5874 5872 5870 5868 5865 5863 5861 5858 5855 5852 5849 5846 5843 5840 5838
5907 5906 5907 5907 5908 5909 5909 5910 5911 5911 5910 5909 5908 5908 5908 5907 5906 5906 5905 5905 5905 5905 5904 5904 5904 5904 5903 5903 5902 5900 5899 5898 5896 5895 5894 5892 5891 5890 5888 5886 5885 5883 5881 5879 5878 5876 5874 5872 5870 5868 5866 5864 5862 5859 5857 5854 5851 5848 5845 5842 5839 5836 5833
5905 5904 5904 5905 5905 5906 5907 5907 5908 5908 5908 5907 5906 5905 5905 5905 5904 5904 5903 5902 5903 5902 5901 5901 5901 5901 5900 5900 5899 5897 5895 5894 5893 5891 5890 5889 5888 5886 5884 5883 5881 5880 5878 5876 5874 5872 5870 5869 5867 5865 5863 5860 5858 5855 5852 5849 5846 5843 5840 5838 5835 5832 5829
5903 5903 5903 5903 5902 5903 5904 5905 5905 5905 5905 5904 5904 5903 5902 5902 5902 5901 5900 5900 5900 5900 5899 5898 5898 5898 5898 5897 5896 5894 5892 5891 5889 5888 5887 5886 5884 5882 5881 5879 5878 5876 5874 5872 5870 5868 5866 5865 5863 5861 5859 5856 5853 5850 5847 5844 5842 5839 5836 5833 5830 5827 5824
5900 5900 5901 5902 5901 5901 5902 5902 5903 5902 5901 5901 5901 5900 5900 5899 5899 5899 5898 5897 5897 5897 5896 5895 5894 5894 5894 5894 5892 5891 5889 5887 5886 5885 5884 5882 5880 5879 5877 5875 5874 5873 5871 5869 5867 5865 5862 5860 5858 5856 5854 5851 5848 5846 5843 5840 5837 5834 5832 5828 5825 5822 5819
5899 5898 5898 5899 5899 5899 5899 5899 5899 5899 5898 5898 5898 5898 5897 5897 5896 5896 5895 5895 5894 5894 5893 5892 5892 5891 5891 5890 5889 5887 5885 5883 5882 5881 5880 5878 5877 5875 5873 5872 5871 5869 5867 5865 5863 5861 5859 5856 5854 5852 5849 5847 5844 5841 5839 5836 5832 5830 5827 5824 5821 5817 5814
5897 5896 5895 5896 5896 5896 5896 5897 5896 5896 5896 5896 5896 5895 5895 5894 5893 5892 5892 5892 5891 5891 5890 5889 5889 5888 5887 5887 5885 5883 5881 5879 5878 5877 5876 5875 5874 5872 5870 5869 5867 5866 5864 5862 5859 5857 5855 5853 5851 5848 5845 5842 5839 5836 5833 5831 5828 5825 5822 5819 5816 5813 5809
5893 5893 5892 5892 5893 5894 5894 5894 5894 5893 5893 5893 5893 5893 5892 5891 5890 5889 5889 5888 5888 5888 5887 5886 5885 5885 5884 5883 5881 5879 5877 5875 5874 5873 5872 5872 5870 5869 5867 5865 5864 5862 5860 5858 5856 5853 5851 5849 5847 5844 5841 5837 5834 5831 5829 5827 5824 5821 5818 5814 5811 5808 5805
5889 5888 5888 5888 5889 5891 5892 5891 5891 5890 5889 5889 5889 5889 5888 5887 5886 5885 5885 5885 5885 5884 5883 5883 5882 5882 5880 5878 5876 5874 5872 5871 5871 5870 5869 5868 5866 5865 5863 5862 5860 5858 5856 5854 5851 5849 5846 5844 5841 5839 5836 5833 5830 5828 5825 5822 5819 5816 5813 5810 5807 5804 5800
5888 5886 5884 5885 5886 5887 5888 5888 5888 5887 5886 5885 5885 5885 5884 5884 5882 5881 5882 5882 5882 5881 5880 5879 5879 5878 5876 5874 5872 5870 5868 5868 5868 5867 5865 5864 5862 5861 5860 5858 5856 5854 5851 5848 5846 5843 5841 5839 5836 5834 5831 5828 5826 5823 5820 5817 5815 5812 5809 5806 5802 5799 5796
5885 5884 5883 5882 5882 5884 5885 5885 5885 5884 5883 5882 5881 5881 5881 5880 5879 5878 5877 5878 5879 5879 5877 5876 5875 5874 5872 5871 5869 5867 5865 5865 5865 5863 5862 5860 5859 5858 5856 5854 5852 5849 5846 5844 5841 5839 5836 5834 5832 5829 5826 5823 5821 5818 5816 5813 5811 5808 5805 5802 5799 5795 5792
5882 5882 5882 5881 5880 5880 5881 5882 5882 5881 5880 5879 5878 5878 5877 5876 5875 5874 5873 5873 5874 5875 5874 5872 5871 5870 5869 5868 5866 5864 5863 5862 5861 5860 5858 5857 5855 5854 5852 5850 5847 5844 5842 5839 5837 5834 5832 5830 5827 5824 5821 5819 5817 5814 5812 5809 5806 5804 5801 5798 5795 5792 5789
5879 5880 5880 5880 5879 5878 5878 5879 5879 5878 5877 5875 5874 5874 5873 5872 5871 5870 5869 5869 5870 5870 5869 5869 5868 5867 5865 5864 5862 5861 5860 5859 5857 5856 5854 5853 5852 5850 5848 5845 5843 5840 5837 5835 5832 5830 5827 5825 5823 5820 5817 5815 5812 5810 5807 5805 5802 5799 5796 5794 5791 5788 5785
5875 5875 5876 5876 5876 5875 5875 5875 5875 5875 5873 5872 5871 5870 5869 5869 5868 5867 5866 5866 5866 5865 5865 5865 5865 5863 5860 5858 5858 5858 5857 5856 5854 5852 5851 5849 5847 5846 5843 5841 5838 5835 5833 5831 5828 5826 5823 5821 5819 5816 5813 5811 5808 5806 5803 5800 5797 5795 5792 5790 5787 5784 5781
5871 5870 5870 5871 5871 5872 5872 5871 5870 5871 5870 5869 5867 5866 5866 5866 5865 5864 5864 5863 5862 5861 5859 5859 5859 5858 5855 5854 5854 5853 5852 5851 5850 5848 5847 5845 5843 5841 5839 5836 5834 5831 5829 5826 5824 5822 5819 5817 5814 5812 5809 5806 5804 5801 5798 5796 5793 5791 5788 5785 5782 5780 5777
5868 5866 5866 5866 5867 5868 5869 5868 5866 5866 5866 5865 5864 5863 5862 5862 5862 5861 5860 5859 5857 5855 5854 5853 5853 5852 5851 5851 5850 5849 5847 5846 5845 5844 5842 5841 5839 5836 5834 5831 5829 5827 5824 5822 5819 5817 5815 5812 5810 5807 5804 5802 5799 5797 5794 5791 5789 5787 5784 5781 5778 5776 5773
5866 5865 5864 5863 5863 5863 5865 5864 5862 5861 5861 5860 5860 5859 5859 5858 5858 5857 5856 5854 5852 5851 5850 5849 5848 5847 5847 5847 5846 5844 5843 5842 5840 5839 5838 5836 5834 5831 5829 5826 5824 5821 5819 5817 5814 5812 5810 5807 5805 5803 5800 5797 5795 5793 5790 5788 5785 5783 5780 5777 5774 5772 5770
5863 5863 5862 5861 5859 5858 5860 5860 5858 5857 5856 5856 5855 5854 5854 5854 5854 5852 5851 5849 5848 5847 5846 5846 5844 5843 5843 5843 5841 5840 5838 5837 5836 5835 5833 5831 5829 5827 5824 5821 5819 5816 5814 5811 5809 5807 5805 5802 5800 5798 5795 5793 5791 5789 5786 5784 5781 5778 5776 5773 5771 5769 5766
5860 5859 5859 5858 5855 5854 5855 5855 5854 5852 5852 5851 5851 5851 5850 5850 5849 5848 5847 5846 5844 5843 5842 5842 5841 5840 5839 5838 5837 5835 5834 5833 5832 5831 5829 5826 5824 5822 5819 5816 5813 5810 5808 5806 5804 5802 5800 5798 5795 5792 5790 5788 5786 5784 5782 5779 5777 5774 5772 5769 5767 5765 5763
5856 5856 5856 5855 5853 5851 5851 5851 5850 5848 5847 5847 5847 5846 5845 5844 5843 5842 5842 5842 5840 5839 5838 5838 5837 5836 5835 5833 5832 5831 5830 5829 5828 5826 5824 5822 5820 5817 5813 5810 5808 5805 5802 5800 5799 5797 5796 5793 5790 5787 5785 5783 5782 5780 5777 5775 5772 5769 5767 5765 5763 5762 5759
5852 5852 5852 5851 5849 5848 5848 5847 5847 5845 5843 5842 5842 5842 5840 5838 5837 5837 5837 5837 5836 5835 5834 5833 5833 5832 5830 5829 5828 5827 5826 5825 5824 5822 5820 5817 5815 5812 5808 5805 5802 5799 5797 5795 5793 5792 5791 5788 5785 5781 5779 5778 5777 5775 5773 5770 5767 5764 5762 5761 5759 5758 5755
5848 5848 5848 5847 5845 5844 5843 5842 5842 5841 5839 5838 5838 5837 5835 5832 5832 5832 5832 5832 5832 5831 5830 5830 5829 5828 5826 5825 5824 5823 5822 5821 5820 5817 5815 5812 5810 5807 5803 5800 5797 5794 5792 5790 5787 5786 5785 5783 5780 5776 5774 5773 5772 5771 5769 5765 5762 5760 5759 5757 5755 5753 5751
5843 5843 5843 5841 5840 5839 5838 5837 5836 5836 5835 5833 5832 5831 5829 5827 5827 5828 5828 5827 5827 5826 5826 5826 5825 5824 5823 5822 5821 5820 5819 5817 5815 5813 5811 5808 5806 5802 5798 5795 5792 5789 5786 5783 5781 5779 5779 5777 5774 5771 5769 5768 5767 5765 5764 5761 5758 5756 5754 5753 5751 5749 5747
5838 5839 5837 5836 5836 5834 5833 5831 5830 5830 5829 5827 5826 5826 5824 5823 5823 5823 5823 5822 5822 5822 5821 5821 5820 5820 5819 5818 5817 5816 5814 5812 5811 5809 5807 5805 5801 5797 5794 5791 5788 5784 5779 5776 5774 5773 5772 5769 5766 5765 5764 5763 5762 5760 5759 5756 5754 5752 5750 5749 5747 5745 5743
5833 5835 5834 5832 5831 5830 5829 5827 5825 5824 5822 5820 5820 5820 5819 5819 5818 5818 5817 5817 5816 5816 5816 5816 5815 5815 5814 5814 5812 5811 5809 5808 5807 5805 5804 5801 5797 5794 5791 5788 5784 5779 5774 5770 5768 5767 5763 5760 5759 5758 5758 5757 5756 5755 5753 5751 5749 5747 5745 5743 5742 5740 5738
5828 5829 5830 5829 5827 5826 5825 5823 5820 5817 5814 5812 5812 5813 5813 5813 5813 5812 5812 5811 5811 5811 5811 5811 5811 5810 5809 5809 5808 5806 5805 5804 5802 5801 5799 5797 5793 5789 5787 5784 5780 5777 5773 5769 5766 5761 5755 5753 5754 5754 5752 5751 5750 5749 5747 5745 5743 5741 5740 5738 5736 5735 5733
5823 5822 5823 5824 5823 5821 5820 5818 5814 5810 5805 5802 5803 5806 5807 5807 5808 5807 5807 5807 5806 5806 5806 5806 5805 5805 5804 5803 5802 5801 5799 5798 5796 5795 5795 5793 5789 5785 5781 5778 5776 5774 5771 5768 5766 5761 5754 5749 5749 5749 5746 5744 5744 5744 5742 5740 5737 5736 5734 5732 5731 5730 5728
5817 5816 5816 5817 5817 5816 5816 5814 5810 5807 5801 5795 5794 5799 5800 5800 5801 5802 5802 5802 5801 5801 5800 5799 5799 5799 5798 5797 5796 5794 5793 5791 5790 5790 5790 5789 5786 5782 5777 5773 5771 5768 5766 5764 5763 5761 5756 5750 5746 5743 5740 5738 5737 5737 5736 5735 5732 5730 5729 5727 5726 5725 5723
5812 5812 5811 5811 5811 5811 5812 5810 5808 5806 5802 5794 5789 5791 5794 5794 5795 5796 5797 5797 5796 5795 5794 5794 5793 5793 5792 5791 5790 5788 5787 5785 5785 5784 5784 5783 5782 5778 5774 5770 5767 5764 5761 5759 5757 5756 5754 5749 5744 5739 5734 5732 5732 5731 5730 5729 5728 5725 5724 5722 5721 5720 5718
5807 5807 5807 5806 5806 5806 5807 5806 5804 5803 5802 5796 5788 5785 5786 5787 5788 5790 5791 5791 5791 5790 5789 5788 5788 5787 5786 5785 5784 5783 5781 5780 5779 5779 5778 5776 5775 5773 5769 5766 5763 5759 5756 5753 5751 5749 5747 5745 5741 5736 5731 5727 5727 5726 5725 5724 5723 5721 5719 5717 5716 5715 5713
5803 5803 5801 5801 5801 5802 5802 5801 5799 5798 5800 5799 5791 5783 5780 5782 5784 5786 5786 5786 5785 5785 5783 5783 5783 5782 5781 5780 5779 5777 5776 5776 5775 5773 5772 5770 5768 5766 5764 5761 5757 5754 5751 5747 5744 5743 5740 5738 5735 5732 5728 5724 5722 5721 5720 5718 5716 5715 5714 5713 5712 5710 5708
5797 5798 5797 5795 5795 5796 5796 5796 5795 5794 5796 5795 5789 5781 5779 5780 5781 5781 5781 5781 5780 5779 5777 5777 5777 5776 5775 5774 5773 5772 5771 5771 5770 5768 5766 5764 5762 5759 5757 5754 5751 5747 5744 5741 5737 5736 5733 5730 5727 5724 5722 5719 5716 5715 5714 5712 5710 5709 5708 5708 5707 5705 5703
5791 5791 5792 5791 5791 5790 5789 5789 5790 5790 5791 5791 5785 5779 5777 5777 5776 5775 5775 5775 5774 5772 5771 5771 5771 5770 5769 5768 5768 5767 5766 5764 5763 5762 5760 5758 5756 5753 5749 5747 5744 5741 5738 5735 5731 5729 5727 5723 5720 5717 5714 5712 5710 5709 5708 5707 5705 5704 5702 5702 5701 5700 5698
5786 5786 5786 5787 5787 5786 5784 5783 5784 5784 5785 5785 5782 5777 5775 5773 5771 5770 5771 5770 5769 5768 5766 5765 5765 5764 5763 5762 5761 5760 5759 5758 5755 5754 5752 5750 5749 5746 5742 5739 5737 5734 5732 5729 5725 5723 5720 5717 5714 5711 5709 5707 5705 5704 5702 5701 5699 5698 5696 5695 5695 5694 5692
5781 5780 5780 5781 5782 5782 5780 5779 5778 5778 5777 5778 5776 5774 5771 5769 5767 5766 5767 5765 5764 5763 5761 5760 5759 5758 5756 5755 5754 5753 5752 5750 5749 5747 5745 5743 5741 5738 5735 5732 5729 5726 5724 5721 5718 5715 5713 5711 5708 5706 5703 5701 5700 5698 5696 5693 5692 5691 5690 5689 5689 5687 5685
5776 5775 5775 5775 5775 5775 5775 5775 5773 5772 5771 5771 5770 5768 5766 5764 5762 5762 5761 5760 5758 5757 5755 5753 5752 5751 5750 5749 5747 5745 5743 5742 5742 5741 5739 5736 5734 5732 5729 5726 5722 5719 5716 5714 5711 5708 5706 5704 5702 5700 5698 5696 5694 5692 5689 5687 5685 5685 5684 5684 5683 5681 5680